New Cumberland, PA

2:06 AM EDT on August 24, 2016 (GMT -0400)
Capital City

Weather History for KCXY - October, 2013

Change the Weather History Date:

Friday, October 11, 2013

  Actual Average Record
Temperature  
Mean Temperature 58 °F -  
Max Temperature 63 °F 64 °F 86 °F (1949)
Min Temperature 55 °F 44 °F 31 °F (1993)
Degree Days  
Heating Degree Days 6    
Growing Degree Days 8 (Base 50)    
Moisture  
Dew Point 57 °F    
Average Humidity 96    
Maximum Humidity 100    
Minimum Humidity 90    
Precipitation  
Precipitation 6.92 in - - ()
Sea Level Pressure  
Sea Level Pressure 30.03 in    
Wind  
Wind Speed 4 mph (NNW)    
Max Wind Speed 8 mph    
Max Gust Speed -    
Visibility 3 miles    
Events Fog , Rain    
Averages and records for this station are not official NWS values.
T = Trace of Precipitation, MM = Missing Value Source: NWS Daily Summary

Daily Weather History Graph

Daily Weather History Graph

Search for Another Location

Airport or City:

Trip Planner

Search our weather history database for the weather conditions in past years. The results will help you decide how hot, cold, wet, or windy it might be!

Date:

Astronomy

Oct. 11, 2013 Rise Set
Actual Time 7:14 AM EDT 6:33 PM EDT
Civil Twilight 6:46 AM EDT 7:00 PM EDT
Nautical Twilight 6:15 AM EDT 7:32 PM EDT
Astronomical Twilight 5:43 AM EDT 8:03 PM EDT
Moon 1:54 PM EDT (10/11) No Moon Set
Length of Visible Light 12h 13m
Length of Day
11h 19m
Waxing Crescent, 47% of the Moon is Illuminated
Oct 11
Waxing Crescent
Oct 11
First Quarter
Oct 18
Full
Oct 26
Last Quarter
Nov 3
New

Hourly Weather History & Observations

Time (EDT) Temp. Dew Point Humidity Pressure Visibility Wind Dir Wind Speed Gust Speed Precip Events Conditions
12:09 AM 57.2 °F 55.4 °F 94% 30.04 in 2.0 mi Variable 4.6 mph - 0.14 in Rain Heavy Rain
12:35 AM 57.2 °F 55.4 °F 94% 30.04 in 2.5 mi NE 8.1 mph - 0.30 in Rain Heavy Rain
12:44 AM 57.2 °F 55.4 °F 94% 30.04 in 4.0 mi NE 6.9 mph - 0.34 in Rain Heavy Rain
12:48 AM 57.2 °F 55.4 °F 94% 30.05 in 2.5 mi Variable 5.8 mph - 0.44 in Rain Heavy Rain
12:56 AM 57.0 °F 55.9 °F 96% 30.05 in 1.5 mi NNE 3.5 mph - 0.53 in Rain Heavy Rain
1:05 AM 57.2 °F 55.4 °F 94% 30.05 in 2.0 mi NNE 5.8 mph - 0.07 in Rain Heavy Rain
1:21 AM 57.2 °F 55.4 °F 94% 30.05 in 3.0 mi NNE 6.9 mph - 0.17 in Rain Heavy Rain
1:42 AM 57.2 °F 55.4 °F 94% 30.03 in 2.0 mi NE 8.1 mph - 0.30 in Rain Heavy Rain
1:47 AM 57.2 °F 55.4 °F 94% 30.03 in 1.2 mi NNE 5.8 mph - 0.42 in Rain Heavy Rain
1:56 AM 55.9 °F 55.0 °F 97% 30.03 in 1.0 mi Variable 5.8 mph - 0.63 in Rain Heavy Rain
2:09 AM 55.4 °F 55.4 °F 100% 30.03 in 2.0 mi NE 5.8 mph - 0.12 in Rain Heavy Rain
2:18 AM 55.4 °F 55.4 °F 100% 30.03 in 4.0 mi Variable 5.8 mph - 0.15 in Rain Heavy Rain
2:35 AM 57.2 °F 55.4 °F 94% 30.02 in 5.0 mi NE 5.8 mph - 0.19 in Rain Heavy Rain
2:56 AM 57.0 °F 55.0 °F 93% 30.02 in 7.0 mi Variable 3.5 mph - 0.20 in Rain Light Rain
3:11 AM 57.2 °F 55.4 °F 94% 30.01 in 1.8 mi NNE 3.5 mph - 0.13 in Rain Heavy Rain
3:16 AM 55.4 °F 55.4 °F 100% 30.01 in 1.2 mi Calm Calm - 0.16 in Rain Heavy Rain
3:20 AM 55.4 °F 55.4 °F 100% 30.01 in 1.8 mi Calm Calm - 0.17 in Rain Heavy Rain
3:24 AM 55.4 °F 55.4 °F 100% 30.01 in 3.0 mi Calm Calm - 0.18 in Rain Rain
3:43 AM 57.2 °F 55.4 °F 94% 30.01 in 2.0 mi Calm Calm - 0.24 in Rain Rain
3:51 AM 57.2 °F 55.4 °F 94% 30.00 in 5.0 mi Calm Calm - 0.25 in Rain Light Rain
3:56 AM 57.0 °F 55.0 °F 93% 30.01 in 3.0 mi Calm Calm - 0.27 in Rain Heavy Rain
4:09 AM 57.2 °F 55.4 °F 94% 30.01 in 2.5 mi Calm Calm - 0.06 in Rain Heavy Rain
4:15 AM 57.2 °F 55.4 °F 94% 30.01 in 1.2 mi Calm Calm - 0.13 in Rain Heavy Rain
4:29 AM 57.2 °F 55.4 °F 94% 30.00 in 1.2 mi NNE 6.9 mph - 0.31 in Rain Heavy Rain
4:31 AM 57.2 °F 55.4 °F 94% 30.00 in 1.8 mi NNE 6.9 mph - 0.33 in Rain Heavy Rain
4:33 AM 57.2 °F 55.4 °F 94% 30.00 in 2.0 mi NNE 6.9 mph - 0.35 in Rain Heavy Rain
4:46 AM 57.2 °F 55.4 °F 94% 30.00 in 1.2 mi North 3.5 mph - 0.57 in Rain Heavy Rain
4:56 AM 57.0 °F 55.9 °F 96% 30.01 in 1.0 mi Variable 3.5 mph - 0.74 in Rain Heavy Rain
5:00 AM 57.2 °F 57.2 °F 100% 30.00 in 2.0 mi Calm Calm - 0.01 in Rain Heavy Rain
5:09 AM 57.2 °F 55.4 °F 94% 30.01 in 5.0 mi Calm Calm - 0.02 in Rain Light Rain
5:18 AM 57.2 °F 57.2 °F 100% 30.01 in 3.0 mi Calm Calm - 0.06 in Rain Heavy Rain
5:25 AM 57.2 °F 55.4 °F 94% 30.01 in 2.0 mi Calm Calm - 0.10 in Rain Heavy Rain
5:36 AM 57.2 °F 55.4 °F 94% 30.01 in 6.0 mi North 3.5 mph - 0.11 in Rain Light Rain
5:48 AM 57.2 °F 55.4 °F 94% 30.01 in 3.0 mi Calm Calm - 0.17 in Rain Heavy Rain
5:56 AM 57.0 °F 55.9 °F 96% 30.02 in 2.5 mi West 3.5 mph - 0.20 in Rain Heavy Rain
5:59 AM 57.2 °F 55.4 °F 94% 30.02 in 1.8 mi Calm Calm - 0.06 in Rain Heavy Rain
6:04 AM 57.2 °F 55.4 °F 94% 30.02 in 1.0 mi Calm Calm - 0.15 in Rain Heavy Rain
6:18 AM 57.2 °F 55.4 °F 94% 30.02 in 0.8 mi Calm Calm - 0.38 in Rain Heavy Rain
6:25 AM 57.2 °F 55.4 °F 94% 30.02 in 1.0 mi North 3.5 mph - 0.50 in Rain Heavy Rain
6:30 AM 57.2 °F 55.4 °F 94% 30.02 in 1.5 mi Variable 5.8 mph - 0.54 in Rain Heavy Rain
6:33 AM 57.2 °F 55.4 °F 94% 30.01 in 2.0 mi North 6.9 mph - 0.56 in Rain Heavy Rain
6:37 AM 57.2 °F 55.4 °F 94% 30.01 in 3.0 mi North 4.6 mph - 0.57 in Rain Heavy Rain
6:48 AM 57.2 °F 55.4 °F 94% 30.01 in 7.0 mi Calm Calm - 0.58 in Rain Light Rain
6:56 AM 57.0 °F 57.0 °F 100% 30.02 in 8.0 mi Calm Calm - 0.58 in Rain Light Rain
7:11 AM 57.2 °F 55.4 °F 94% 30.02 in 10.0 mi Calm Calm - 0.00 in Rain Light Rain
7:21 AM 57.2 °F 55.4 °F 94% 30.02 in 10.0 mi Calm Calm - 0.00 in   Overcast
7:56 AM 59.0 °F 55.9 °F 90% 30.04 in 10.0 mi Calm Calm - 0.00 in Rain Light Rain
8:33 AM 57.2 °F 55.4 °F 94% 30.04 in 10.0 mi Calm Calm - 0.00 in Rain Light Rain
8:56 AM 57.0 °F 55.0 °F 93% 30.05 in 6.0 mi NW 3.5 mph - 0.01 in Rain Light Rain
9:54 AM 55.4 °F 55.4 °F 100% 30.05 in 2.5 mi Calm Calm - 0.21 in Rain Heavy Rain
9:56 AM 55.9 °F 55.0 °F 97% 30.05 in 3.0 mi WNW 3.5 mph - 0.22 in Rain Heavy Rain
9:59 AM 55.4 °F 55.4 °F 100% 30.05 in 1.8 mi WNW 3.5 mph - 0.01 in Rain Heavy Rain
10:23 AM 55.4 °F 55.4 °F 100% 30.04 in 3.0 mi WNW 3.5 mph - 0.14 in Rain Heavy Rain
10:56 AM 55.9 °F 55.0 °F 97% 30.04 in 3.0 mi WSW 3.5 mph - 0.25 in Rain Heavy Rain
11:56 AM 57.0 °F 55.0 °F 93% 30.05 in 3.0 mi WSW 4.6 mph - 0.13 in Rain Rain
12:39 PM 57.2 °F 55.4 °F 94% 30.03 in 1.8 mi NNW 5.8 mph - 0.06 in Rain Heavy Rain
12:49 PM 57.2 °F 55.4 °F 94% 30.03 in 2.0 mi NW 4.6 mph - 0.11 in Rain Heavy Rain
12:56 PM 57.0 °F 55.9 °F 96% 30.04 in 2.0 mi WNW 4.6 mph - 0.12 in Rain Rain
1:12 PM 57.2 °F 55.4 °F 94% 30.03 in 2.0 mi West 4.6 mph - 0.04 in Rain Rain
1:19 PM 57.2 °F 55.4 °F 94% 30.03 in 2.0 mi West 5.8 mph - 0.05 in Rain Light Rain
1:56 PM 57.9 °F 57.0 °F 97% 30.02 in 2.0 mi NW 5.8 mph - 0.21 in Rain Heavy Rain
2:00 PM 57.2 °F 57.2 °F 100% 30.01 in 0.8 mi NW 5.8 mph - 0.03 in Rain Heavy Rain
2:07 PM 57.2 °F 57.2 °F 100% 30.01 in 1.0 mi NW 5.8 mph - 0.05 in Rain Rain
2:16 PM 57.2 °F 57.2 °F 100% 30.01 in 1.5 mi NNW 6.9 mph - 0.08 in Rain Heavy Rain
2:27 PM 57.2 °F 57.2 °F 100% 30.01 in 3.0 mi NW 5.8 mph - 0.09 in Rain Light Rain
2:37 PM 59.0 °F 57.2 °F 94% 30.01 in 2.5 mi NNW 4.6 mph - 0.10 in Rain Rain
2:48 PM 59.0 °F 57.2 °F 94% 30.01 in 1.2 mi NW 5.8 mph - 0.16 in Rain Heavy Rain
2:56 PM 59.0 °F 57.0 °F 93% 30.02 in 1.0 mi NNW 4.6 mph - 0.22 in Rain Heavy Rain
3:05 PM 57.2 °F 57.2 °F 100% 30.01 in 0.8 mi NNW 3.5 mph - 0.08 in Rain Heavy Rain
3:12 PM 57.2 °F 57.2 °F 100% 30.01 in 0.8 mi WNW 4.6 mph - 0.14 in Rain Heavy Rain
3:24 PM 57.2 °F 57.2 °F 100% 30.01 in 0.8 mi Calm Calm - 0.27 in Rain Heavy Rain
3:56 PM 57.9 °F 57.9 °F 100% 30.02 in 0.2 mi Calm Calm - 1.23 in Fog , Rain Heavy Rain
4:31 PM 59.0 °F 57.2 °F 94% 30.02 in 1.5 mi NW 3.5 mph - 0.43 in Rain Light Rain
4:33 PM 59.0 °F 57.2 °F 94% 30.02 in 3.0 mi NW 3.5 mph - 0.43 in Rain Light Rain
4:56 PM 59.0 °F 57.9 °F 96% 30.03 in 10.0 mi NNW 4.6 mph - 0.46 in Rain Light Rain
5:35 PM 59.0 °F 57.2 °F 94% 30.03 in 2.0 mi Calm Calm - 0.04 in Rain Rain
5:47 PM 59.0 °F 57.2 °F 94% 30.03 in 1.5 mi Calm Calm - 0.10 in Rain Heavy Rain
5:56 PM 59.0 °F 57.9 °F 96% 30.04 in 1.2 mi Calm Calm - 0.14 in Rain Heavy Rain
6:07 PM 59.0 °F 57.2 °F 94% 30.03 in 0.8 mi Calm Calm - 0.09 in Rain Heavy Rain
6:12 PM 59.0 °F 57.2 °F 94% 30.03 in 1.5 mi Calm Calm - 0.10 in Rain Heavy Rain
6:22 PM 59.0 °F 59.0 °F 100% 30.04 in 2.5 mi Calm Calm - 0.14 in Rain Heavy Rain
6:26 PM 59.0 °F 59.0 °F 100% 30.04 in 3.0 mi Calm Calm - 0.15 in Rain Rain
6:35 PM 59.0 °F 59.0 °F 100% 30.05 in 2.5 mi Calm Calm - 0.19 in Rain Heavy Rain
6:46 PM 59.0 °F 59.0 °F 100% 30.05 in 1.2 mi Calm Calm - 0.33 in Rain Heavy Rain
6:56 PM 60.1 °F 59.0 °F 96% 30.05 in 1.8 mi Calm Calm - 0.39 in Rain Heavy Rain
7:14 PM 60.8 °F 59.0 °F 94% 30.05 in 1.2 mi Calm Calm - 0.14 in Rain Heavy Rain
7:21 PM 60.8 °F 59.0 °F 94% 30.05 in 2.0 mi SW 3.5 mph - 0.16 in Rain Rain
7:28 PM 60.8 °F 59.0 °F 94% 30.05 in 4.0 mi WSW 3.5 mph - 0.17 in Rain Light Rain
7:38 PM 60.8 °F 59.0 °F 94% 30.06 in 2.0 mi NNW 3.5 mph - 0.19 in Rain Rain
7:49 PM 60.8 °F 60.8 °F 100% 30.06 in 6.0 mi NW 4.6 mph - 0.20 in Rain Light Rain
7:56 PM 61.0 °F 60.1 °F 97% 30.06 in 5.0 mi NW 3.5 mph - 0.21 in Rain Light Rain
8:20 PM 60.8 °F 59.0 °F 94% 30.05 in 3.0 mi NNW 5.8 mph - 0.06 in Rain Heavy Rain
8:30 PM 60.8 °F 60.8 °F 100% 30.06 in 1.8 mi Calm Calm - 0.14 in Rain Heavy Rain
8:41 PM 60.8 °F 60.8 °F 100% 30.06 in 3.0 mi Calm Calm - 0.17 in Rain Rain
8:56 PM 60.1 °F 59.0 °F 96% 30.06 in 8.0 mi Calm Calm - 0.17 in   Overcast
9:56 PM 62.1 °F 60.1 °F 93% 30.08 in 9.0 mi Calm Calm - 0.01 in Rain Light Rain
10:30 PM 60.8 °F 60.8 °F 100% 30.07 in 9.0 mi Calm Calm - 0.00 in   Overcast
10:56 PM 62.1 °F 60.1 °F 93% 30.08 in 10.0 mi Calm Calm - 0.00 in   Overcast
11:08 PM 62.6 °F 60.8 °F 94% 30.07 in 10.0 mi Calm Calm - N/A   Overcast
11:39 PM 62.6 °F 60.8 °F 94% 30.06 in 10.0 mi Calm Calm - N/A   Overcast
11:56 PM 63.0 °F 60.1 °F 90% 30.05 in 10.0 mi ENE 3.5 mph - N/A   Overcast